Regional Weather Roundup
Issued by NWS Jackson, KY

Home | Current Version | Previous Version | Graphics & Text | Print | Product List | Glossary On
Versions: 1 2 3 4 5 6 7 8 9 10 11 12 13 14 15 16 17 18 19 20 21 22 23 24 25 26 27
000
ASUS43 KJKL 301910
RWRJKL

EAST KENTUCKY HOURLY WEATHER ROUNDUP
NATIONAL WEATHER SERVICE JACKSON KY
300 PM EDT MON MAY 30 2016

NOTE: "FAIR" INDICATES FEW OR NO CLOUDS BELOW 12,000 FEET WITH
NO SIGNIFICANT WEATHER AND/OR OBSTRUCTIONS TO VISIBILITY.

* THESE REPORTS ARE NOT UNDER NWS QUALITY CONTROL AND MAY NOT
  REPORT WEATHER SUCH AS PRECIPITATION AND FOG.

KYZ079-080-083-085-087-088-110-112-115-119-120-302000
...EASTERN KENTUCKY...

CITY           SKY/WX    TMP DP  RH WIND       PRES   REMARKS
JACKSON        MOSUNNY   83  65  54 CALM      30.03F
LONDON         PTSUNNY   81  62  52 N15G26    30.03F
SOMERSET*      CLOUDY    81  55  41 NE8       30.03F
MONTICELLO*    SUNNY     84  61  45 N18       30.04F
WILLIAMSBURG*  CLEAR     82  61  47 W6        30.02F
MIDDLESBORO*     N/A     81  63  53 W5        30.02S
HARLAN APT*      N/A     82  59  44 N8        30.02F
HAZARD APT*    MOCLDY    82  63  51 N5        30.03F
BLACK MTN*       N/A     72  63  73 NW7         N/A
PIKE CO APT*     N/A     81  62  53 NW5       30.03F
BIG SANDY APT* PTCLDY    82  66  58 N3        30.02F
MOREHEAD APT*  CLEAR     82  63  51 VRB6G13   30.06S
ASHLAND*       SUNNY     84  64  51 CALM      29.99F
$$

KYZ035-036-041-042-044-050-067-078-099-302000
...CENTRAL KENTUCKY...

CITY           SKY/WX    TMP DP  RH WIND       PRES   REMARKS
MT STERLING*   MOSUNNY   82  63  51 CALM      30.05F
FLEMING/MASON* MOSUNNY  N/A N/A N/A NW6       30.05S
DANVILLE*      PTSUNNY   82  59  44 N8        30.05S
RICHMOND*      MOSUNNY   82  59  44 N7        30.03F
LEXINGTON      MOSUNNY   85  61  44 NW10      30.04S
FRANKFORT      MOSUNNY   86  56  35 VRB5      30.02F
LOUISVILLE     PTSUNNY   87  56  34 N10       30.02F
LEBANON*         N/A     82  61  47 NW5       30.04F
GLASGOW*       PTSUNNY   84  55  36 CALM      30.03F
BOWLING GREEN  MOSUNNY   87  59  38 N6        30.03F
$$

KYZ091>093-OHZ055-061-077-WVZ005-015-034-035-042-302000
...SOUTHERN OHIO/WEST VIRGINIA...

CITY           SKY/WX    TMP DP  RH WIND       PRES   REMARKS
COVINGTON      MOSUNNY   85  56  37 N9        30.04S
COLUMBUS       PTSUNNY   82  57  42 N9        30.01F
DAYTON         MOSUNNY   84  54  35 VRB5      30.04F
WILMINGTON     MOSUNNY   82  59  45 VRB6G16   30.03F
HUNTINGTON       N/A     83  63  50 N7        30.01F
CHARLESTON       N/A     82  59  45 CALM      30.00F
PINEVILLE*     PTSUNNY   84  56  37 MISG      30.06F
BECKLEY        PTSUNNY   78  59  51 NW9       30.06F
BLUEFIELD        N/A     75  57  53 NW7       30.07F
LOGAN CO APT*    N/A     81  63  54 CALM      30.03F
$$

VAZ002-007-008-TNZ017-027-036-066-071-302000
...SOUTHWEST VIRGINIA/EAST TENNESSEE...

CITY           SKY/WX    TMP DP  RH WIND       PRES   REMARKS
WISE*          PTSUNNY   77  54  44 N9        30.09F
JONESVILLE*      N/A     81  63  54 SE8       30.04S
ABINGDON*      PTSUNNY   81  59  46 N3        30.03F
BRISTOL        MOSUNNY   84  60  44 W3        30.01F
SEVIERVILLE*     N/A     84  61  45 CALM      29.98F
KNOXVILLE      PTSUNNY   86  62  44 N3        29.98F
OAK RIDGE      MOSUNNY   87  63  44 VRB5      30.00F
CROSSVILLE     PTSUNNY   82  58  43 N7        30.06F
NASHVILLE      MOSUNNY   88  56  33 NW9       30.03S
$$

...KEY TO REMARKS...
VSB - VISIBILITY IN MILES
WCI - WIND CHILL INDEX
HX  - HEAT INDEX

$$




USA.gov is the U.S. government's official web portal to all federal, state and local government web resources and services.